Regional Weather Roundup
Issued by NWS

Home | Current Version | Previous Version | Text Only | Print | Product List | Glossary On
Versions: 1 2 3 4 5 6 7 8 9 10 11 12 13 14 15 16 17 18 19 20 21 22 23 24 25 26 27 28 29 30 31 32 33 34 35 36 37 38 39 40 41 42 43 44 45 46 47 48 49 50
000
ASUS43 KLSX 301410
RWRMO

WEATHER SUMMARY FOR MISSOURI
NATIONAL WEATHER SERVICE SPRINGFIELD MO
900 AM CDT FRI SEP 30 2016

NOTE: "FAIR" INDICATES FEW OR NO CLOUDS BELOW 12,000 FEET WITH NO
       SIGNIFICANT WEATHER AND/OR OBSTRUCTIONS TO VISIBILITY.
       CURRENT SKY AND/OR WEATHER CONDITIONS ARE NOT AVAILABLE FOR
       CHILLICOTHE AND FARMINGTON.

MOZ001>031-035>038-043-044-053-054-301500-
...NORTHERN AND WESTERN MISSOURI...

CITY           SKY/WX    TMP DP  RH WIND       PRES   REMARKS
KANSAS CTY INT SUNNY     56  50  80 N6        30.25S
KANSAS C DTWN  SUNNY     57  51  80 VRB6      30.25S
LEE`S SUMMIT   SUNNY     56  51  84 N3        30.25S
ST JOSEPH      SUNNY     55  51  86 NE5       30.27S
CHILLICOTHE      N/A     57  51  80 N5        30.25R
KIRKSVILLE     SUNNY     56  50  80 N8        30.21S

$$
MOZ066>068-077>081-088>096-101>105-301500-
...SOUTHWEST MISSOURI...

CITY           SKY/WX    TMP DP  RH WIND       PRES   REMARKS
SPRINGFIELD    SUNNY     57  51  80 N7        30.20S
JOPLIN         SUNNY     55  51  86 N3        30.24R
BRANSON        SUNNY     57  50  77 SW3       30.21S

$$
MOZ032>034-039>042-045>050-055>058-069>072-301500-
...CENTRAL MISSOURI...

CITY           SKY/WX    TMP DP  RH WIND       PRES   REMARKS
COLUMBIA       SUNNY     60  55  83 NW9       30.18S
JEFFERSON CITY SUNNY     60  54  80 NW7       30.17S
ROLLA          CLOUDY    57  55  93 N9        30.15S
SEDALIA        SUNNY     58  52  80 NW8       30.21S
WHITEMAN AFB   SUNNY     56  55  96 NW3       30.21R
OSAGE BEACH    MOSUNNY   59  54  83 VRB3      30.19S

$$
MOZ051-052-059>065-301500-
...EAST CENTRAL MISSOURI...

CITY           SKY/WX    TMP DP  RH WIND       PRES   REMARKS
ST LOUIS INTL  CLOUDY    62  56  80 N9        30.12S
SPIRIT OF STL  CLOUDY    63  57  81 N7        30.12S
ST CHARLES     CLOUDY    61  58  90 N10       30.12R

$$
MOZ072>076-082>087-097>100-106>115-301500-
...SOUTH CENTRAL AND SOUTHEAST MISSOURI...

CITY           SKY/WX    TMP DP  RH WIND       PRES   REMARKS
CAPE GIRARDEAU CLOUDY    62  56  80 NW7       30.08S
FARMINGTON     CLOUDY    60  57  89 NW7       30.11S
POPLAR BLUFF   SUNNY     62  58  86 NW5       30.10R
WEST PLAINS    SUNNY     62  55  77 NW7       30.17S

$$




USA.gov is the U.S. government's official web portal to all federal, state and local government web resources and services.